Location: Unspecified
(0.0000°N, 0.0000°E)
Time: 03:59:10
(UTC+00:00)

Falcon 9 debris - Visible Passes

Search period start: 15 June 2021 00:00
Search period end: 25 June 2021 00:00
Orbit: 420 x 425 km, 53.0° (Epoch: 14 June)

Date Brightness Start Highest point End Pass type
(mag) Time Alt. Az. Time Alt. Az. Time Alt. Az.
15 Jun ? 19:23:07 10° WNW 19:24:21 12° NW 19:25:34 10° NW visible
16 Jun ? 05:22:40 10° NNE 05:24:38 15° NE 05:26:35 10° E visible
16 Jun ? 18:35:18 10° WSW 18:38:07 24° NW 18:40:56 10° N visible
18 Jun ? 05:25:23 10° NNW 05:28:44 88° NE 05:32:06 10° SE visible
19 Jun ? 04:39:26 10° NNW 04:42:31 34° NE 04:45:37 10° ESE visible
20 Jun ? 03:54:09 10° NNE 03:56:17 16° NE 03:58:26 10° E visible
20 Jun ? 05:30:46 10° W 05:32:50 15° SW 05:34:54 10° SSW visible
21 Jun ? 04:48:39 17° S 04:48:39 17° S 04:49:39 10° S visible
